map of SMA home
SMA - Airport
Location
City:  Santa Maria, Região Autónoma dos Açores (Azores), Portugal
ICAO:LPAZ
IATA:SMA

Details
Type:Airport (Aerodrome, Airfield)
Use:Public/Civil, International (customs port of entry)
Latitude:36°58'17"N (36.971390)
Longitude:25°10'14"W (-25.170638)
Datum:WGS 1984
Elevation:308 ft (94 m)
Variation:8.00°W (WMM2015 magnetic declination)
0.14° annual change
Runways:3
Longest:10000 × 197 ft (3048 × 60 m), paved

Time
Time Zone:UTC-1 (DST+0)
Local Time:

Weather
METAR:LPAZ 201800Z 34014KT 9999 SCT028 15/08 Q1020
TAF:LPAZ 201700Z 2018/2124 34015KT 9999 SCT025
TEMPO 2018/2124 FEW018 BKN035 PROB30
TEMPO 2018/2124 33020G32KT

Related Locations
Nearby:
Farthest:YJBY: 12177 mi / 19597 km
Jervis Bay, NSW, AU

Find:

   beyond  
but within

Other Information
Maps:
NOTAMs:
Links:
Sources:

  
  • flag of Portugal
  • flag of Região Autónoma dos Açores (Azores)
  

Sectional Chart

Flight Planning
at skyvector.com

Satellite Image

Google Maps Satellite view

 

Copyright © 2004-2018 Karl L. Swartz. All rights reserved.
The Great Circle Mapper name and logo are trademarks of the Great Circle Mapper.
All other trademarks mentioned herein belong to their respective owners.
Please see credits for attibutions and further copyright information.

  Follow gcmap on Facebook Follow gcmap on Twitter Follow gcmap on Google+ GCmap on LinkedIn

hCard Microformat

Geo Microformat